SUPERBIRD-C2

Last updated on Jan. 21, 2021, 6:16 a.m. UTC

1 33274U 08038A   21020.86771660 -.00000243  00000-0  00000-0 0  9994
2 33274   0.0132 236.2295 0001826  63.0850 277.4555  1.00271609 85942
UTC
Height (km)
Latitude
Longitude
Inclination
Orbital Period
UTC large
Height (km)
Speed (km/s)
/
Latitude / Longitude
Inclination (degrees)
Orbital Period (minutes)
Azimuth
Elevation
Range (km)
Doppler Factor
iOS Compass Heading
iOS Angle

Next 30 passes for location: Hong Kong

Rise time Rise Azimuth (degrees) Set time Set Azimuth (degrees) Duration Max altitude (degrees)

No matching passes for this satellites